Regional Weather Roundup
Issued by NWS

Home | Current Version | Previous Version | Text Only | Print | Product List | Glossary On
Versions: 1 2 3 4 5 6 7 8 9 10 11 12 13 14 15 16 17 18 19 20 21 22 23 24 25 26 27 28 29 30 31 32 33 34 35 36 37 38 39 40 41 42 43 44 45 46 47 48 49 50
000
ASUS46 KSEW 280710
RWRWA

WASHINGTON REGIONAL WEATHER ROUNDUP
NATIONAL WEATHER SERVICE SEATTLE WA
1200 AM PDT THU AUG 28 2014

NOTE:"FAIR" INDICATES FEW OR NO CLOUDS BELOW 12,000 FEET WITH NO
SIGNIFICANT WEATHER AND/OR OBSTRUCTIONS TO VISIBILITY.

WAZ505-507>509-280800-
SEATTLE, TACOMA, EVERETT, AND VICINITY

CITY           SKY/WX    TMP DP  RH WIND       PRES   REMARKS
EVERETT        CLOUDY    62  57  83 N7        30.04S
BOEING FIELD   PTCLDY    73  54  51 E5        30.02S
RENTON         CLEAR     69  60  73 E3        30.03R
SEATAC AIRPORT MOCLDY    65  57  75 S3        30.05R
JBLM-MCCHORD   CLEAR     65  55  70 N3        30.04S
PUYALLUP       NOT AVBL
JBLM-FT LEWIS  CLEAR     64  54  69 S2        30.04S
TACOMA NARROWS CLEAR     64  54  69 SW3       30.04S
$$

WAZ001-503-506-510-514-515-280800-
NORTH INTERIOR

CITY           SKY/WX    TMP DP  RH WIND       PRES   REMARKS
BELLINGHAM     MOCLDY    63  56  78 S12       29.99R
FRIDAY HARBOR  PTCLDY    59  56  89 VRB3      30.00S
EASTSOUND      CLEAR     61  55  82 S8        29.97S
PORT ANGELES   PTCLDY    59  56  89 W12       30.05R
NAS WHIDBEY    MOCLDY    60  55  83 SW7       30.03S
BURLINGTON     MOCLDY    59  57  94 S9        30.03S
$$

WAZ020-022-039-040-504-511-512-280800-
SOUTHWEST INTERIOR

CITY           SKY/WX    TMP DP  RH WIND       PRES   REMARKS
SHELTON        MOCLDY    58  55  90 SW13      30.03R
OLYMPIA        CLEAR     59  53  80 S6        30.05R
CHEHALIS       FAIR      61  57  88 SW3       30.07S
KELSO          CLEAR     63  54  72 N3        30.11S
VANCOUVER      CLEAR     69  54  58 NW7       30.03R
SCAPPOOSE, OR  CLEAR     67  55  65 NW7       30.03S
PORTLAND, OR   CLEAR     69  56  62 NW12      30.04R
$$

WAZ021-516-517-280800-
WASHINGTON COAST

CITY           SKY/WX    TMP DP  RH WIND       PRES   REMARKS
FORKS          CLOUDY    60  60 100 CALM      30.08S FOG
HOQUIAM        CLOUDY    59  59 100 W12       30.08S FOG
ASTORIA, OR    CLOUDY    61  59  93 VRB7      30.10S FOG
$$

WAZ019-023-024-040-518-519-280800-
CASCADE MOUNTAINS AND COLUMBIA GORGE

CITY           SKY/WX    TMP DP  RH WIND       PRES   REMARKS
STAMPEDE PASS  NOT AVBL
TROUTDALE, OR  CLEAR     69  56  62 W5        30.02R
THE DALLES, OR CLEAR     78  57  48 NW12      29.94S
$$

WAZ026-027-041>044-520-521-280800-
EAST SLOPES

CITY           SKY/WX    TMP DP  RH WIND       PRES   REMARKS
OMAK           CLEAR     75  47  36 NW10      29.87S
WENATCHEE      CLEAR     78  52  40 NW12      29.92S
ELLENSBURG     CLEAR     71  54  54 NW22      29.97S
YAKIMA         CLEAR     73  56  54 NW9       29.95R
$$

WAZ028-034-035-280800-
COLUMBIA BASIN

CITY           SKY/WX    TMP DP  RH WIND       PRES   REMARKS
EPHRATA        CLEAR     79  50  36 NW16G26   29.87S
MOSES LAKE     CLEAR     75  50  41 W7        29.89S
PASCO          CLEAR     79  56  45 W10       29.90R
HERMISTON, OR  CLEAR     78  54  43 SW13      29.92R
$$

WAZ036>038-280800-
NORTHEAST WASHINGTON

CITY           SKY/WX    TMP DP  RH WIND       PRES   REMARKS
SPOKANE GEIGER PTCLDY    71  47  42 S7        29.94F
SPOKANE FELTS  CLEAR     66  48  52 CALM      29.93S
FAIRCHILD AFB  CLEAR     70  48  45 S3        29.95S
COEURDALENE,ID CLEAR     66  52  59 E3        29.95R
DEER PARK      CLEAR     60  47  61 CALM      29.94S
$$

WAZ029>033-280800-
SOUTHEAST WASHINGTON

CITY           SKY/WX    TMP DP  RH WIND       PRES   REMARKS
PULLMAN        CLEAR     62  44  51 CALM      30.00S
LEWISTON, ID   CLEAR     73  48  41 S5        29.93R
WALLA WALLA    CLEAR     78  51  38 S10       29.96R
PENDLETON, OR  CLEAR     77  51  40 SW7       29.98R
$$



USA.gov is the U.S. government's official web portal to all federal, state and local government web resources and services.